Wind_Speed
45 45 43 44 34 37 39 40 41 47 46 42 42 41 38 37 35 34 32 30 28 28 30 30 32 31 29 28 28 28 26 27 27 27 27 28 28 29 30 33 33 33 33 34
47 45 42 44 42 40 41 41 41 46 46 41 43 41 37 36 36 34 34 31 29 29 31 33 35 34 30 31 32 31 30 30 32 32 33 32 33 33 35 37 38 39 39 38
46 44 42 44 43 41 43 40 42 42 39 45 44 42 39 37 35 33 32 30 29 29 31 34 36 36 32 31 34 34 34 34 35 36 37 36 38 38 39 41 42 43 43 42
49 49 46 45 45 45 45 42 42 42 43 44 43 43 38 35 33 33 32 31 32 31 30 32 35 37 34 32 33 36 38 38 39 39 40 41 42 42 43 43 45 46 46 46
52 51 48 46 44 43 42 41 41 41 42 46 46 45 40 34 33 32 33 31 31 31 31 31 33 36 36 35 34 36 38 39 40 41 42 44 44 45 46 47 48 48 48 48
56 55 53 51 48 47 47 44 44 44 44 46 42 41 40 37 33 30 31 32 33 33 33 32 33 35 38 39 38 38 38 40 41 43 45 46 47 48 48 48 49 49 49 48
62 60 58 55 53 52 52 50 48 48 47 47 44 42 40 39 36 35 35 34 34 34 34 35 36 36 37 39 41 43 44 45 45 46 47 48 48 49 49 49 49 49 51 52
63 63 61 59 57 53 52 51 49 48 48 46 46 45 42 45 39 38 39 38 38 38 37 36 37 39 40 41 42 44 45 46 47 47 48 49 49 49 49 49 50 52 53 54
64 65 63 60 57 54 54 54 51 51 51 52 51 49 47 47 45 43 41 41 41 43 44 44 43 43 43 43 44 45 46 48 49 49 51 52 50 49 50 51 54 55 54 53
63 59 59 59 59 58 55 53 52 53 55 56 56 54 50 48 48 47 46 46 46 45 44 43 45 47 48 49 48 47 48 48 48 50 50 50 50 50 51 52 54 53 52 53
61 61 60 57 57 56 54 55 57 57 58 57 57 56 53 51 50 50 51 51 49 45 46 48 48 49 56 54 52 50 49 48 48 49 50 50 51 51 52 53 53 53 53 55
58 65 68 59 52 53 52 53 55 57 57 57 56 55 51 50 51 51 50 49 50 56 55 51 48 48 50 50 49 49 50 48 47 50 51 52 52 52 53 54 55 57 58 59
50 56 59 57 60 68 70 62 57 58 57 57 58 56 61 61 60 61 62 62 62 62 62 58 51 47 46 48 52 55 56 55 51 51 51 50 51 54 56 58 58 57 56 54
47 56 55 54 57 59 60 60 63 66 62 63 65 67 68 67 64 64 61 58 57 57 52 49 50 50 52 46 45 47 47 48 50 52 52 52 53 54 54 54 53 51 49 48
44 43 44 43 41 45 49 54 60 66 64 63 52 52 48 49 52 52 50 49 48 47 48 49 49 47 46 46 43 42 42 44 46 47 48 48 49 49 49 49 48 49 50 51
45 47 44 42 41 40 45 46 46 47 50 53 52 47 45 47 47 46 47 47 46 46 47 48 45 45 44 42 41 43 44 45 46 47 47 47 47 47 48 49 51 51 54 56
42 43 41 45 45 44 49 46 47 47 47 46 47 39 42 43 45 47 50 51 51 49 45 42 41 42 42 43 46 47 46 46 45 44 44 43 42 42 45 47 49 52 56 56
35 39 45 46 44 44 41 40 41 42 42 45 44 43 42 43 41 41 42 42 38 36 37 38 39 39 40 40 40 41 42 42 41 41 41 41 41 42 42 43 45 48 49 51
41 41 44 40 47 47 44 42 40 35 36 35 37 39 39 37 36 37 37 33 33 35 36 38 40 41 41 42 42 43 45 46 47 48 49 50 51 52 52 53 54 51 51 51
45 46 49 51 54 53 48 40 38 37 36 35 37 36 35 35 37 34 35 38 39 40 40 41 42 43 45 47 49 51 52 54 56 56 56 56 57 56 57 57 56 55 55 54
44 45 46 48 49 52 51 48 44 44 41 43 40 41 41 41 41 41 44 44 45 45 45 46 47 49 51 52 53 54 55 56 57 57 57 58 58 58 58 58 57 56 56 55
47 47 51 54 54 51 48 50 51 46 44 45 47 45 43 44 45 45 45 45 46 48 50 52 53 55 57 58 59 59 58 58 58 59 60 60 60 60 59 58 59 58 58 60
59 57 55 54 54 52 52 49 50 49 48 46 46 47 46 46 46 46 45 45 48 52 55 58 59 60 62 62 62 61 60 60 62 62 62 61 61 59 59 60 61 62 63 66
56 56 57 56 52 51 51 51 51 52 52 51 50 50 51 50 52 52 53 55 54 57 62 64 66 69 65 63 62 61 61 62 62 62 61 60 60 61 62 63 65 66 69 71
58 59 59 57 55 57 55 54 55 55 55 55 57 59 59 58 58 60 60 63 65 67 64 64 64 63 63 63 63 62 63 64 63 63 62 62 63 64 65 67 69 72 74 76
60 60 60 58 56 57 56 57 58 57 58 60 62 63 63 64 66 69 70 70 73 71 68 69 70 68 66 64 63 64 65 66 66 65 66 67 68 69 71 73 75 77 78 80
Wind_Direction
221 224 229 234 234 235 234 236 239 242 246 245 247 245 247 249 254 256 254 252 250 246 248 248 246 249 247 247 249 255 260 265 273 276 283 287 293 298 301 303 305 304 305 306
225 227 226 227 233 232 234 236 240 240 244 248 247 247 249 253 253 253 255 256 253 249 247 248 246 247 250 249 250 254 259 263 269 275 279 286 288 292 295 297 299 301 301 302
227 226 227 229 232 235 237 237 238 240 242 249 249 247 247 249 254 257 256 255 254 250 246 247 249 248 252 255 254 255 259 264 268 274 278 283 286 289 291 294 296 298 299 298
226 226 226 227 229 232 232 236 240 240 243 248 250 248 245 250 254 255 254 252 255 259 256 251 250 251 253 256 257 257 260 263 267 273 277 280 282 286 288 291 292 292 294 294
230 230 231 231 233 235 236 236 238 239 240 239 243 248 243 243 249 252 255 259 259 260 259 256 253 251 254 258 260 261 263 265 268 271 276 279 283 284 286 287 288 290 289 288
230 231 231 232 233 236 238 238 240 241 242 242 241 246 237 241 242 247 255 259 261 261 261 262 258 256 257 259 262 264 266 268 270 272 275 278 279 281 283 284 285 285 285 285
232 233 234 233 234 236 240 242 243 245 245 245 245 247 244 250 251 251 251 251 256 260 263 264 266 265 263 262 264 265 267 269 270 272 274 276 277 279 280 280 280 282 283 285
235 236 238 238 238 242 244 246 249 254 255 254 254 249 244 251 253 257 260 262 264 265 264 263 263 263 264 266 267 267 268 269 269 270 270 271 272 274 276 278 278 282 284 285
238 238 238 239 240 242 243 246 249 251 252 255 254 250 249 251 256 258 263 265 268 269 270 270 271 271 268 265 262 263 264 266 268 270 271 272 274 275 277 278 279 280 282 283
239 242 241 241 241 241 244 245 246 248 251 253 255 255 255 257 264 269 267 265 266 266 268 270 274 276 275 272 271 270 269 269 271 272 273 274 273 273 274 274 275 275 277 279
238 239 241 240 240 243 243 244 248 250 250 254 256 257 258 261 262 264 267 267 266 269 276 281 281 275 267 268 268 269 269 268 268 267 267 269 270 269 269 269 271 274 277 279
241 240 238 240 241 240 242 243 245 247 250 254 257 256 258 259 261 262 263 269 273 278 281 280 278 271 267 269 268 268 269 269 268 268 268 270 269 268 270 272 274 275 277 279
236 236 237 235 239 238 241 241 243 245 249 250 253 258 260 263 266 269 271 272 272 273 276 278 273 269 268 265 265 265 266 269 269 267 268 271 270 272 272 272 275 277 279 278
233 235 237 243 249 250 249 252 253 253 251 256 258 261 262 265 266 270 273 272 269 269 268 270 272 273 271 269 267 268 269 269 268 267 269 269 271 272 274 276 280 280 279 278
241 233 237 241 244 249 246 247 248 249 252 256 257 261 261 262 264 267 268 269 269 267 265 266 266 269 275 277 275 274 274 275 276 275 276 277 278 279 280 279 279 278 276 281
241 241 242 242 239 250 252 250 247 247 252 254 251 252 259 262 265 268 270 268 266 263 262 264 271 276 276 274 273 276 278 277 276 276 277 279 280 280 281 278 272 275 282 282
239 239 240 244 246 251 254 248 254 255 254 257 256 257 259 258 257 257 259 264 269 273 279 278 273 274 277 276 277 281 282 282 282 282 283 283 282 283 280 278 278 276 277 280
233 237 241 243 241 241 246 245 247 249 247 249 253 255 254 256 257 257 259 263 267 271 273 275 275 277 279 279 281 283 285 286 287 288 287 285 284 284 284 284 282 281 281 282
224 224 219 223 233 232 234 234 233 242 251 257 253 253 253 253 253 257 259 264 266 266 267 270 273 275 275 278 280 283 283 284 284 285 286 286 287 288 289 288 288 285 280 278
228 229 231 235 236 233 237 234 235 244 248 253 257 258 260 259 260 264 265 262 262 265 268 269 270 271 273 275 278 281 283 283 283 283 283 284 284 283 283 283 281 280 281 280
238 236 239 243 245 240 240 239 245 250 255 258 259 260 260 262 263 262 266 267 268 267 264 265 266 269 272 274 276 278 278 279 280 281 281 279 278 277 278 279 278 279 281 282
237 245 255 259 262 255 251 253 253 253 258 260 261 261 264 263 262 262 263 264 264 264 264 266 268 270 272 274 277 278 279 279 278 276 275 276 277 277 277 278 278 280 281 282
248 254 256 257 263 264 263 260 258 258 259 259 257 259 263 260 257 256 257 258 260 263 265 268 269 272 275 276 277 278 278 277 275 275 276 276 276 276 276 275 277 277 279 282
244 248 250 251 252 254 257 258 258 257 259 261 261 265 266 265 264 261 261 262 265 271 273 271 270 272 274 276 277 276 275 273 273 274 274 274 272 272 272 274 277 279 282 285
245 246 250 250 250 249 251 255 257 259 259 260 262 263 264 266 265 264 267 269 270 277 277 271 271 276 278 276 274 271 270 270 271 271 272 271 272 273 275 278 280 282 285 287
251 251 251 252 253 253 253 254 257 260 262 261 260 260 262 264 263 262 266 268 272 276 273 273 278 279 276 272 268 265 266 267 269 270 271 272 274 276 278 280 282 285 287 289
Height
5777 5784 5790 5795 5798 5800 5804 5807 5810 5814 5818 5821 5824 5829 5832 5834 5838 5840 5840 5842 5845 5847 5846 5848 5849 5851 5854 5857 5858 5857 5858 5858 5858 5858 5858 5858 5857 5856 5854 5852 5851 5849 5847 5845
5771 5777 5782 5785 5790 5794 5797 5800 5803 5808 5810 5814 5818 5823 5825 5827 5831 5833 5834 5835 5838 5839 5840 5841 5841 5844 5847 5849 5851 5852 5852 5852 5852 5852 5852 5852 5851 5849 5847 5845 5843 5843 5841 5839
5765 5771 5774 5778 5783 5787 5791 5795 5797 5800 5801 5806 5810 5815 5818 5821 5823 5825 5828 5829 5830 5831 5832 5833 5835 5837 5840 5843 5843 5845 5845 5845 5846 5845 5845 5845 5844 5843 5841 5839 5837 5835 5834 5832
5754 5760 5765 5770 5774 5779 5782 5786 5788 5791 5793 5799 5802 5806 5812 5813 5816 5819 5820 5821 5822 5824 5826 5827 5829 5830 5833 5835 5836 5836 5837 5838 5838 5838 5838 5837 5836 5835 5833 5832 5830 5827 5825 5823
5750 5753 5758 5763 5770 5771 5776 5777 5779 5782 5785 5790 5796 5797 5807 5808 5810 5811 5812 5814 5816 5817 5818 5820 5822 5823 5825 5827 5828 5829 5830 5830 5829 5829 5828 5827 5827 5826 5824 5822 5820 5819 5816 5814
5736 5743 5747 5754 5758 5761 5765 5768 5771 5774 5777 5781 5787 5788 5798 5801 5803 5805 5805 5806 5808 5809 5811 5812 5814 5816 5817 5818 5819 5820 5821 5821 5820 5819 5818 5818 5817 5815 5814 5812 5809 5807 5805 5803
5727 5731 5738 5743 5748 5751 5755 5759 5762 5765 5767 5773 5777 5780 5791 5791 5793 5796 5798 5800 5801 5802 5803 5804 5805 5807 5808 5809 5810 5810 5811 5810 5810 5809 5808 5807 5807 5805 5803 5801 5799 5797 5794 5792
5718 5723 5730 5735 5739 5745 5747 5751 5755 5757 5760 5765 5766 5772 5782 5780 5785 5787 5788 5789 5791 5793 5794 5795 5796 5796 5798 5799 5800 5800 5800 5799 5798 5797 5796 5795 5794 5793 5791 5790 5788 5786 5784 5781
5706 5711 5717 5723 5728 5733 5736 5740 5748 5746 5750 5752 5757 5765 5770 5772 5773 5777 5780 5781 5782 5783 5782 5783 5784 5785 5787 5788 5788 5788 5788 5787 5786 5785 5784 5783 5782 5781 5780 5779 5778 5775 5773 5770
5695 5700 5707 5711 5715 5718 5726 5733 5733 5734 5738 5739 5746 5752 5761 5765 5765 5764 5767 5770 5771 5772 5773 5774 5774 5774 5775 5775 5776 5777 5776 5776 5775 5774 5773 5772 5770 5770 5768 5767 5765 5763 5760 5758
5682 5688 5693 5697 5701 5710 5714 5717 5721 5724 5726 5730 5736 5743 5750 5752 5753 5753 5752 5753 5756 5758 5760 5762 5764 5764 5763 5763 5763 5763 5763 5763 5762 5761 5760 5759 5757 5756 5755 5754 5752 5751 5749 5747
5670 5672 5676 5685 5692 5697 5700 5706 5710 5710 5717 5718 5722 5730 5738 5738 5739 5740 5742 5742 5742 5744 5746 5748 5749 5749 5750 5750 5750 5749 5749 5749 5749 5747 5747 5746 5746 5745 5744 5743 5741 5739 5737 5734
5655 5655 5662 5669 5676 5682 5685 5692 5696 5700 5702 5704 5709 5724 5724 5726 5727 5729 5730 5732 5732 5731 5731 5732 5733 5736 5737 5737 5737 5737 5737 5736 5735 5734 5734 5735 5734 5732 5731 5729 5728 5726 5723 5720
5642 5646 5651 5658 5667 5674 5677 5684 5689 5690 5689 5699 5698 5711 5709 5710 5713 5713 5713 5714 5714 5715 5717 5718 5719 5719 5718 5722 5724 5725 5725 5724 5724 5723 5722 5721 5720 5718 5717 5716 5714 5712 5709 5706
5634 5641 5647 5651 5656 5658 5663 5667 5671 5672 5681 5680 5693 5693 5697 5695 5693 5694 5696 5699 5701 5704 5704 5704 5704 5707 5708 5708 5709 5711 5712 5712 5712 5711 5710 5708 5706 5705 5703 5701 5699 5697 5696 5695
5624 5629 5636 5639 5644 5646 5649 5653 5658 5662 5666 5669 5675 5680 5684 5685 5686 5685 5686 5687 5688 5689 5689 5691 5695 5697 5697 5697 5697 5698 5698 5697 5698 5698 5697 5695 5693 5692 5690 5689 5687 5685 5684 5681
5614 5619 5624 5629 5635 5636 5636 5647 5648 5653 5656 5660 5662 5675 5671 5672 5673 5673 5673 5675 5675 5677 5680 5681 5681 5683 5684 5684 5684 5684 5684 5683 5683 5683 5682 5681 5679 5678 5677 5675 5674 5672 5671 5669
5605 5610 5615 5618 5621 5622 5634 5635 5637 5638 5642 5644 5650 5655 5657 5658 5660 5662 5664 5665 5666 5667 5668 5669 5669 5669 5670 5671 5671 5670 5670 5670 5670 5670 5670 5669 5668 5667 5665 5664 5662 5661 5658 5655
5598 5601 5603 5606 5609 5615 5622 5625 5627 5629 5635 5636 5638 5642 5645 5646 5648 5653 5653 5655 5657 5657 5657 5657 5657 5658 5659 5659 5660 5660 5660 5660 5660 5659 5657 5656 5654 5653 5651 5649 5647 5644 5641 5639
5587 5590 5594 5597 5601 5608 5616 5618 5620 5623 5628 5628 5629 5631 5633 5634 5638 5643 5642 5644 5644 5645 5646 5646 5646 5646 5647 5647 5647 5647 5646 5645 5644 5644 5643 5641 5638 5636 5634 5632 5630 5628 5625 5623
5576 5579 5584 5586 5590 5600 5606 5609 5610 5612 5621 5616 5618 5619 5621 5625 5629 5629 5631 5632 5633 5633 5633 5634 5634 5634 5634 5634 5633 5632 5631 5630 5629 5628 5626 5624 5622 5621 5619 5616 5614 5612 5610 5606
5565 5568 5573 5575 5578 5589 5596 5598 5601 5604 5602 5604 5605 5608 5610 5614 5615 5617 5618 5619 5619 5620 5620 5621 5620 5620 5619 5619 5618 5617 5616 5615 5614 5612 5610 5609 5608 5606 5604 5602 5600 5597 5595 5592
5553 5558 5561 5565 5571 5578 5579 5583 5586 5588 5589 5592 5594 5597 5598 5600 5601 5602 5604 5605 5605 5605 5606 5606 5606 5605 5604 5603 5603 5602 5601 5599 5597 5596 5594 5593 5591 5590 5588 5586 5584 5581 5578 5575
5540 5544 5547 5553 5561 5564 5566 5569 5570 5572 5574 5578 5580 5583 5585 5587 5587 5588 5589 5590 5591 5592 5591 5591 5590 5589 5588 5587 5586 5585 5583 5581 5579 5578 5577 5576 5575 5573 5571 5569 5567 5564 5560 5557
5525 5530 5535 5540 5547 5549 5553 5556 5555 5558 5561 5563 5564 5565 5567 5569 5571 5573 5574 5574 5574 5574 5573 5573 5573 5572 5572 5571 5569 5568 5566 5564 5563 5562 5561 5559 5558 5556 5554 5551 5549 5546 5540 5537
5512 5517 5521 5529 5531 5531 5537 5537 5539 5544 5547 5548 5548 5549 5551 5553 5554 5555 5556 5556 5557 5556 5555 5555 5554 5553 5552 5552 5552 5550 5549 5548 5547 5545 5544 5542 5540 5538 5535 5533 5530 5523 5521 5516